| time (UTC) | temp C | wind direction | speed KPH | gust KPH | rain 1hr cm | rain 24hr cm | rain mn cm | humidity % | barometer mb |
| 20260505111527 | 13 | 47 | 8.0 | 17.7 | 0.00 | 0.00 | 0.00 | 57 | 1011.1 |
| 20260505101526 | 13 | 324 | 3.2 | 20.9 | 0.00 | 0.00 | 0.00 | 58 | 1011.3 |
| 20260505100022 | 13 | 22 | 3.2 | 14.5 | 0.00 | 0.00 | 0.00 | 60 | 1011.4 |
| 20260505094525 | 13 | 317 | 9.7 | 17.7 | 0.00 | 0.03 | 0.00 | 57 | 1011.5 |
| 20260505093015 | 12 | 26 | 4.8 | 17.7 | 0.00 | 0.03 | 0.00 | 63 | 1011.5 |
| 20260505091512 | 11 | 320 | 8.0 | 16.1 | 0.00 | 0.03 | 0.00 | 64 | 1011.6 |
| 20260505090011 | 11 | 63 | 8.0 | 20.9 | 0.00 | 0.03 | 0.00 | 63 | 1011.6 |
| 20260505084509 | 11 | 5 | 6.4 | 16.1 | 0.00 | 0.03 | 0.00 | 63 | 1011.6 |
| 20260505083008 | 12 | 54 | 3.2 | 8.0 | 0.00 | 0.03 | 0.00 | 62 | 1011.5 |
| 20260505081506 | 11 | 304 | 4.8 | 16.1 | 0.00 | 0.03 | 0.00 | 65 | 1011.6 |
| 20260505080005 | 11 | 22 | 4.8 | 14.5 | 0.00 | 0.03 | 0.00 | 63 | 1011.5 |
| 20260505074503 | 12 | 355 | 6.4 | 16.1 | 0.00 | 0.03 | 0.00 | 62 | 1011.6 |
| 20260505073001 | 11 | 313 | 3.2 | 8.0 | 0.00 | 0.03 | 0.00 | 67 | 1011.5 |
| 20260505071600 | 10 | 346 | 4.8 | 12.9 | 0.00 | 0.03 | 0.00 | 70 | 1011.5 |
| 20260505070100 | 10 | 32 | 4.8 | 14.5 | 0.00 | 0.03 | 0.00 | 69 | 1011.5 |
| 20260505064600 | 11 | 335 | 9.7 | 16.1 | 0.00 | 0.03 | 0.00 | 67 | 1011.4 |
| 20260505063113 | 11 | 333 | 6.4 | 17.7 | 0.00 | 0.03 | 0.00 | 69 | 1011.4 |
| 20260505061555 | 11 | 324 | 3.2 | 19.3 | 0.00 | 0.03 | 0.00 | 73 | 1011.3 |
| 20260505060053 | 10 | 325 | 8.0 | 19.3 | 0.00 | 0.03 | 0.00 | 72 | 1011.4 |
| 20260505054554 | 10 | 355 | 6.4 | 14.5 | 0.00 | 0.03 | 0.00 | 72 | 1011.2 |
| 20260505053054 | 10 | 327 | 1.6 | 9.7 | 0.00 | 0.03 | 0.00 | 74 | 1011.3 |
| 20260505051540 | 10 | 325 | 3.2 | 14.5 | 0.00 | 0.03 | 0.00 | 76 | 1011.3 |
| 20260505041537 | 7 | 302 | 0.0 | 1.6 | 0.00 | 0.03 | 0.00 | 84 | 1011.2 |
| 20260505040033 | 7 | 301 | 0.0 | 3.2 | 0.00 | 0.03 | 0.00 | 84 | 1011.2 |
| 20260505034524 | 7 | 301 | 0.0 | 3.2 | 0.00 | 0.03 | 0.00 | 84 | 1011.3 |
| 20260505033020 | 7 | 311 | 0.0 | 0.0 | 0.00 | 0.03 | 0.00 | 84 | 1011.4 |
| 20260505031533 | 6 | 313 | 0.0 | 0.0 | 0.00 | 0.03 | 0.00 | 84 | 1011.4 |
| 20260505030017 | 6 | 313 | 0.0 | 1.6 | 0.00 | 0.03 | 0.00 | 84 | 1011.3 |
| 20260505024516 | 7 | 313 | 0.0 | 3.2 | 0.00 | 0.03 | 0.00 | 83 | 1011.4 |
| 20260505023015 | 7 | 315 | 0.0 | 4.8 | 0.00 | 0.03 | 0.00 | 83 | 1011.3 |
| 20260505021513 | 7 | 278 | 0.0 | 4.8 | 0.00 | 0.03 | 0.00 | 83 | 1011.5 |
| 20260505020013 | 7 | 336 | 0.0 | 6.4 | 0.00 | 0.03 | 0.00 | 82 | 1011.4 |
| 20260505014512 | 7 | 332 | 1.6 | 12.9 | 0.00 | 0.03 | 0.00 | 82 | 1011.4 |
| 20260505013011 | 7 | 330 | 1.6 | 8.0 | 0.00 | 0.03 | 0.00 | 82 | 1011.4 |
| 20260505011509 | 7 | 322 | 0.0 | 8.0 | 0.00 | 0.03 | 0.00 | 83 | 1011.5 |
| 20260505010007 | 7 | 341 | 1.6 | 8.0 | 0.00 | 0.03 | 0.00 | 84 | 1011.5 |
| 20260505004506 | 7 | 294 | 0.0 | 8.0 | 0.00 | 0.03 | 0.00 | 84 | 1011.7 |
| 20260505003006 | 7 | 322 | 0.0 | 6.4 | 0.00 | 0.03 | 0.00 | 84 | 1011.6 |
| 20260505001504 | 6 | 313 | 0.0 | 4.8 | 0.00 | 0.03 | 0.00 | 85 | 1011.6 |
| 20260505000001 | 7 | 340 | 0.0 | 0.0 | 0.00 | 0.03 | 0.00 | 84 | 1011.7 |
| 20260504234600 | 7 | 340 | 0.0 | 1.6 | 0.00 | 0.05 | 0.00 | 82 | 1011.7 |
| 20260504233111 | 8 | 340 | 0.0 | 3.2 | 0.00 | 0.05 | 0.00 | 80 | 1011.7 |
| 20260504231601 | 8 | 342 | 0.0 | 9.7 | 0.00 | 0.05 | 0.00 | 81 | 1011.7 |
| 20260504230057 | 8 | 337 | 3.2 | 6.4 | 0.00 | 0.05 | 0.00 | 81 | 1011.8 |
| 20260504224602 | 8 | 313 | 3.2 | 9.7 | 0.00 | 0.23 | 0.00 | 82 | 1011.7 |
| 20260504223112 | 7 | 294 | 0.0 | 4.8 | 0.00 | 0.23 | 0.00 | 81 | 1011.8 |
| 20260504221549 | 7 | 266 | 0.0 | 0.0 | 0.00 | 0.23 | 0.00 | 79 | 1011.6 |
| 20260504220048 | 7 | 267 | 0.0 | 1.6 | 0.00 | 0.23 | 0.00 | 79 | 1011.8 |
| 20260504214546 | 7 | 267 | 0.0 | 1.6 | 0.00 | 0.36 | 0.23 | 77 | 1011.8 |
| 20260504213054 | 7 | 267 | 0.0 | 1.6 | 0.00 | 0.36 | 0.23 | 77 | 1011.8 |
| 20260504211541 | 7 | 267 | 0.0 | 1.6 | 0.00 | 0.36 | 0.23 | 76 | 1011.8 |
| 20260504210041 | 8 | 267 | 0.0 | 1.6 | 0.00 | 0.36 | 0.23 | 75 | 1011.8 |
| 20260504204545 | 8 | 266 | 0.0 | 1.6 | 0.00 | 0.71 | 0.23 | 76 | 1011.7 |
| 20260504203044 | 8 | 267 | 0.0 | 0.0 | 0.00 | 0.71 | 0.23 | 76 | 1011.7 |
| 20260504201601 | 8 | 266 | 0.0 | 0.0 | 0.00 | 0.71 | 0.23 | 76 | 1011.7 |
| 20260504200038 | 8 | 267 | 0.0 | 0.0 | 0.00 | 0.71 | 0.23 | 73 | 1011.7 |
| 20260504194640 | 10 | 267 | 0.0 | 0.0 | 0.00 | 0.84 | 0.23 | 70 | 1011.5 |
| 20260504193048 | 10 | 267 | 0.0 | 0.0 | 0.00 | 0.84 | 0.23 | 68 | 1011.6 |
| 20260504191543 | 11 | 266 | 0.0 | 0.0 | 0.00 | 0.84 | 0.23 | 65 | 1011.4 |
| 20260504190147 | 11 | 267 | 0.0 | 1.6 | 0.00 | 0.84 | 0.23 | 62 | 1011.4 |
| 20260504184600 | 12 | 266 | 0.0 | 3.2 | 0.00 | 0.84 | 0.23 | 59 | 1011.4 |
| 20260504183155 | 12 | 233 | 0.0 | 6.4 | 0.00 | 0.84 | 0.23 | 58 | 1011.3 |
| 20260504181556 | 13 | 254 | 0.0 | 6.4 | 0.00 | 0.84 | 0.23 | 58 | 1011.2 |
| 20260504180154 | 13 | 251 | 0.0 | 8.0 | 0.00 | 0.84 | 0.23 | 56 | 1011.1 |
| 20260504174619 | 13 | 211 | 0.0 | 11.3 | 0.00 | 0.84 | 0.23 | 52 | 1011.0 |
| 20260504173042 | 13 | 287 | 1.6 | 9.7 | 0.00 | 0.84 | 0.23 | 47 | 1011.0 |
| 20260504171540 | 14 | 242 | 1.6 | 14.5 | 0.00 | 0.84 | 0.23 | 43 | 1011.1 |
| 20260504170141 | 14 | 305 | 4.8 | 16.1 | 0.00 | 0.84 | 0.23 | 40 | 1011.2 |
| 20260504150117 | 16 | 298 | 1.6 | 16.1 | 0.00 | 0.84 | 0.23 | 39 | 1011.1 |